Tracking 19637 objects as of 18-Apr-2019
HD Live streaming from Space Station
objects crossing your sky now

SL-12 R/B(2)

Track SL-12 R/B(2) now!


NORAD ID: 14195
Int'l Code: 1981-102F
Perigee: 35,769.1 km
Apogee: 35,835.6 km
Inclination: 12.3 °
Period: 1,436.5 minutes
Semi major axis: 42173 km
RCS: 2.1503 m2 (large)
Launch date: October 9, 1981
Source: Commonwealth of Independent States (former USSR) (CIS)
Launch site: TYURATAM MISSILE AND SPACE COMPLEX (TTMTR)

Note: This is a ROCKET BODY
aabbcc
Your satellite tracking list
Your tracking list is empty




NASA's NSSDC Master Catalog

Two Line Element Set (TLE):
1 14195U 81102F   19106.89579249 -.00000203 +00000-0 +00000-0 0  9998
2 14195 012.2953 321.3004 0007889 131.1538 228.8396 01.00241000096765
Source of the keplerian elements: AFSPC